Indianapolis, IN

12:04 PM EST on November 23, 2017 (GMT -0500)
Indianapolis International

Weather History for KIND - June, 2012

Change the Weather History Date:

Monday, June 11, 2012

  Actual Average Record
Temperature  
Mean Temperature 77 °F 71 °F  
Max Temperature 84 °F 81 °F 96 °F (1933)
Min Temperature 69 °F 61 °F 41 °F (1980)
Degree Days  
Heating Degree Days 0 1  
Month to date heating degree days 15 13  
Since 1 June heating degree days 15 13  
Since 1 July heating degree days 4116 5375  
Cooling Degree Days 12 7  
Month to date cooling degree days 49 61  
Year to date cooling degree days 259 145  
Since 1 June cooling degree days 49 61  
Growing Degree Days 26 (Base 50)    
Moisture  
Dew Point 67 °F    
Average Humidity 76    
Maximum Humidity 90    
Minimum Humidity 62    
Precipitation  
Precipitation T in 0.14 in 2.90 in (2009)
Month to date precipitation 0.05 1.58  
Year to date precipitation 15.11 18.98  
Snow  
Snow 0.00 in 0.00 in 0.00 in ()
Month to date snowfall 0.0 0.0  
Since 1 June snowfall 0.0 0.0  
Since 1 July snowfall 9.8 25.9  
Snow Depth 0.00 in    
Sea Level Pressure  
Sea Level Pressure 29.90 in    
Wind  
Wind Speed 8 mph (SSW)    
Max Wind Speed 17 mph    
Max Gust Speed 22 mph    
Visibility 10 miles    
Events Rain    
T = Trace of Precipitation, MM = Missing Value Source: NWS Daily Summary

Daily Weather History Graph

Daily Weather History Graph

Search for Another Location

Airport or City:

Trip Planner

Search our weather history database for the weather conditions in past years. The results will help you decide how hot, cold, wet, or windy it might be!

Date:

Astronomy

Jun. 11, 2012 Rise Set
Actual Time 6:16 AM EDT 9:13 PM EDT
Civil Twilight 5:44 AM EDT 9:45 PM EDT
Nautical Twilight 5:03 AM EDT 10:27 PM EDT
Astronomical Twilight 4:15 AM EDT 11:14 PM EDT
Moon 1:34 AM EDT (6/11) 2:04 PM EDT (6/11)
Length of Visible Light 16h 01m
Length of Day
14h 56m
Waning Gibbous, 48% of the Moon is Illuminated
Jun 11
Waning Gibbous
Jun 19
New
Jun 26
First Quarter
Jul 3
Full
Jul 10
Last Quarter

Hourly Weather History & Observations

Time (EDT) Temp. Heat Index Dew Point Humidity Pressure Visibility Wind Dir Wind Speed Gust Speed Precip Events Conditions
12:54 AM 75.0 °F - 63.0 °F 66% 29.92 in 10.0 mi South 11.5 mph - N/A   Overcast
1:54 AM 73.0 °F - 64.0 °F 73% 29.91 in 10.0 mi South 12.7 mph - N/A   Overcast
2:47 AM 71.6 °F - 64.4 °F 78% 29.94 in 10.0 mi SSW 8.1 mph - N/A   Overcast
2:54 AM 72.0 °F - 64.0 °F 76% 29.92 in 10.0 mi SSW 6.9 mph - N/A   Overcast
3:33 AM 71.6 °F - 64.4 °F 78% 29.94 in 10.0 mi South 6.9 mph - N/A   Overcast
3:54 AM 72.0 °F - 64.0 °F 76% 29.92 in 10.0 mi South 8.1 mph - N/A   Overcast
4:32 AM 71.6 °F - 64.4 °F 78% 29.94 in 10.0 mi South 5.8 mph - N/A   Overcast
4:54 AM 70.0 °F - 64.9 °F 84% 29.92 in 5.0 mi South 8.1 mph - 0.00 in Rain Light Rain
5:12 AM 69.8 °F - 66.2 °F 88% 29.94 in 9.0 mi South 4.6 mph - 0.00 in   Overcast
5:54 AM 70.0 °F - 66.0 °F 87% 29.92 in 10.0 mi South 8.1 mph - 0.00 in   Overcast
6:54 AM 70.0 °F - 64.9 °F 84% 29.94 in 10.0 mi South 6.9 mph - N/A   Overcast
7:54 AM 70.0 °F - 66.0 °F 87% 29.93 in 10.0 mi South 6.9 mph - N/A   Overcast
8:54 AM 72.0 °F - 66.0 °F 81% 29.93 in 10.0 mi South 8.1 mph - N/A   Overcast
9:54 AM 73.0 °F - 66.9 °F 81% 29.93 in 10.0 mi South 6.9 mph - N/A   Overcast
10:05 AM 73.4 °F - 66.2 °F 78% 29.95 in 10.0 mi SSW 5.8 mph - N/A   Overcast
10:24 AM 73.4 °F - 66.2 °F 78% 29.95 in 10.0 mi Variable 5.8 mph - N/A   Overcast
10:54 AM 73.9 °F - 66.9 °F 79% 29.93 in 10.0 mi Variable 4.6 mph - N/A   Overcast
11:54 AM 75.0 °F - 68.0 °F 79% 29.92 in 10.0 mi SSE 4.6 mph - N/A   Overcast
12:54 PM 75.9 °F - 69.1 °F 79% 29.91 in 10.0 mi SSE 4.6 mph - 0.00 in   Overcast
1:54 PM 81.0 °F 84.1 °F 69.1 °F 67% 29.90 in 10.0 mi South 9.2 mph - N/A   Partly Cloudy
2:54 PM 81.0 °F 83.8 °F 68.0 °F 65% 29.90 in 10.0 mi SSW 12.7 mph 19.6 mph N/A   Mostly Cloudy
3:01 PM 80.6 °F 83.2 °F 68.0 °F 65% 29.92 in 10.0 mi SSW 11.5 mph - N/A   Mostly Cloudy
3:41 PM 80.6 °F 83.2 °F 68.0 °F 65% 29.91 in 10.0 mi SW 11.5 mph - 0.00 in   Mostly Cloudy
3:54 PM 82.0 °F 84.9 °F 68.0 °F 62% 29.89 in 10.0 mi WSW 16.1 mph 21.9 mph 0.00 in   Overcast
4:54 PM 82.0 °F 84.9 °F 68.0 °F 62% 29.85 in 10.0 mi SSW 11.5 mph - N/A   Overcast
5:54 PM 81.0 °F 83.3 °F 66.9 °F 62% 29.82 in 10.0 mi South 10.4 mph - N/A   Overcast
6:54 PM 80.1 °F 82.7 °F 68.0 °F 67% 29.83 in 10.0 mi SSW 9.2 mph - N/A   Overcast
7:54 PM 79.0 °F - 68.0 °F 69% 29.87 in 10.0 mi West 8.1 mph - N/A   Overcast
8:54 PM 77.0 °F - 69.1 °F 76% 29.85 in 10.0 mi SSW 5.8 mph - N/A   Overcast
9:54 PM 75.0 °F - 69.1 °F 82% 29.86 in 10.0 mi SSW 6.9 mph - N/A   Overcast
10:54 PM 73.9 °F - 68.0 °F 82% 29.86 in 10.0 mi South 4.6 mph - N/A   Scattered Clouds
11:54 PM 73.0 °F - 68.0 °F 84% 29.88 in 9.0 mi SSW 6.9 mph - N/A   Mostly Cloudy